Weather History for KGLE - January, 2014

Change the Weather History Date:

Sunday, January 26, 2014

  Actual Average (KDTO) Record (KDTO)
Temperature  
Mean Temperature 56 °F -  
Max Temperature 73 °F 54 °F 73 °F (1999)
Min Temperature 39 °F 32 °F 23 °F (2004)
Degree Days  
Heating Degree Days 9    
Growing Degree Days 6 (Base 50)    
Moisture  
Dew Point 28 °F    
Average Humidity 42    
Maximum Humidity 71    
Minimum Humidity 12    
Precipitation  
Precipitation 0.00 in - - ()
Sea Level Pressure  
Sea Level Pressure 29.80 in    
Wind  
Wind Speed 4 mph (SSE)    
Max Wind Speed 14 mph    
Max Gust Speed 17 mph    
Visibility 10 miles    
Events      
Averages and records for this station are not official NWS values.
T = Trace of Precipitation, MM = Missing Value Source: NWS Daily Summary

Daily Weather History Graph

Daily Weather History Graph

Search for Another Location

Airport or City:

Trip Planner

Search our weather history database for the weather conditions in past years. The results will help you decide how hot, cold, wet, or windy it might be!

Date:

Astronomy

Jan. 26, 2014 Rise Set
Actual Time 7:28 AM CST 5:54 PM CST
Civil Twilight 7:02 AM CST 6:20 PM CST
Nautical Twilight 6:32 AM CST 6:50 PM CST
Astronomical Twilight 6:02 AM CST 7:20 PM CST
Moon 3:06 AM CST (1/26) 1:46 PM CST (1/26)
Length of Visible Light 11h 18m
Length of Day
10h 25m
Waning Crescent, 23% of the Moon is Illuminated
Jan 26
Waning Crescent
Jan 30
New
Feb 6
First Quarter
Feb 14
Full
Feb 22
Last Quarter

Hourly Weather History & Observations

Time (CST) Temp. Windchill Dew Point Humidity Pressure Visibility Wind Dir Wind Speed Gust Speed Precip Events Conditions
12:15 AM 45.9 °F - 32.0 °F 58% 29.97 in 10.0 mi Calm Calm - N/A   Clear
12:35 AM 45.9 °F - 31.8 °F 58% 29.97 in 10.0 mi Calm Calm - N/A   Clear
12:55 AM 45.9 °F - 31.8 °F 58% 29.95 in 10.0 mi Calm Calm - N/A   Clear
1:15 AM 45.5 °F - 32.0 °F 59% 29.95 in 10.0 mi Calm Calm - N/A   Clear
1:35 AM 42.3 °F - 30.2 °F 62% 29.95 in 10.0 mi Calm Calm - N/A   Clear
1:55 AM 42.4 °F - 30.2 °F 62% 29.94 in 10.0 mi Calm Calm - N/A   Clear
2:15 AM 41.5 °F - 30.2 °F 64% 29.93 in 10.0 mi Calm Calm - N/A   Clear
2:35 AM 41.0 °F 39.0 °F 30.2 °F 65% 29.93 in 10.0 mi SE 3.5 mph - N/A   Clear
2:55 AM 41.0 °F 39.0 °F 29.8 °F 64% 29.93 in 10.0 mi SE 3.5 mph - N/A   Clear
3:15 AM 41.2 °F - 29.8 °F 64% 29.92 in 10.0 mi Calm Calm - N/A   Clear
3:35 AM 41.0 °F 38.0 °F 30.0 °F 65% 29.91 in 10.0 mi ESE 4.6 mph - N/A   Clear
3:55 AM 40.1 °F 36.9 °F 29.8 °F 67% 29.91 in 10.0 mi SE 4.6 mph - N/A   Clear
4:15 AM 41.0 °F - 29.3 °F 63% 29.90 in 10.0 mi Calm Calm - N/A   Clear
4:35 AM 41.0 °F 39.0 °F 29.3 °F 63% 29.89 in 10.0 mi SSE 3.5 mph - N/A   Clear
4:55 AM 40.6 °F 36.7 °F 30.4 °F 67% 29.88 in 10.0 mi SE 5.8 mph - N/A   Clear
5:15 AM 39.7 °F 36.5 °F 31.1 °F 71% 29.88 in 10.0 mi SSE 4.6 mph - N/A   Clear
5:35 AM 41.5 °F 37.1 °F 31.5 °F 67% 29.87 in 10.0 mi SE 6.9 mph - N/A   Clear
5:55 AM 45.9 °F 41.7 °F 32.2 °F 59% 29.86 in 10.0 mi SSE 8.1 mph - N/A   Clear
6:15 AM 45.9 °F 43.6 °F 32.0 °F 58% 29.86 in 10.0 mi SE 4.6 mph - N/A   Clear
6:35 AM 48.0 °F - 32.7 °F 55% 29.86 in 10.0 mi SSE 5.8 mph - N/A   Clear
6:55 AM 48.4 °F - 32.5 °F 54% 29.85 in 10.0 mi SSE 8.1 mph - N/A   Clear
7:15 AM 48.4 °F - 32.7 °F 55% 29.86 in 10.0 mi South 3.5 mph - N/A   Clear
7:35 AM 46.0 °F 44.8 °F 32.0 °F 58% 29.85 in 10.0 mi SE 3.5 mph - N/A   Clear
7:55 AM 43.3 °F 39.2 °F 32.0 °F 64% 29.83 in 10.0 mi SE 6.9 mph - N/A   Clear
8:15 AM 45.9 °F - 33.1 °F 61% 29.84 in 10.0 mi Calm Calm - N/A   Clear
8:35 AM 48.4 °F - 33.3 °F 56% 29.82 in 10.0 mi SSE 8.1 mph - N/A   Clear
8:55 AM 49.3 °F - 32.5 °F 53% 29.81 in 10.0 mi SSE 6.9 mph - N/A   Clear
9:15 AM 53.6 °F - 34.0 °F 47% 29.81 in 10.0 mi SSE 9.2 mph - N/A   Clear
9:35 AM 53.6 °F - 32.0 °F 44% 29.80 in 10.0 mi SSE 11.5 mph - N/A   Clear
9:55 AM 57.9 °F - 30.9 °F 36% 29.80 in 10.0 mi SSE 12.7 mph - N/A   Clear
10:15 AM 59.2 °F - 28.4 °F 31% 29.80 in 10.0 mi SSE 12.7 mph - N/A   Clear
10:35 AM 59.5 °F - 29.3 °F 32% 29.80 in 10.0 mi SSE 10.4 mph - N/A   Clear
10:55 AM 64.4 °F - 25.7 °F 23% 29.80 in 10.0 mi South 12.7 mph 17.3 mph N/A   Clear
11:15 AM 63.3 °F - 18.7 °F 18% 29.79 in 10.0 mi South 13.8 mph - N/A   Clear
11:35 AM 63.1 °F - 21.7 °F 21% 29.78 in 10.0 mi South 12.7 mph 16.1 mph N/A   Clear
11:55 AM 61.7 °F - 22.1 °F 22% 29.77 in 10.0 mi South 10.4 mph - N/A   Clear
12:15 PM 62.1 °F - 23.2 °F 23% 29.75 in 10.0 mi South 9.2 mph - N/A   Clear
12:35 PM 63.5 °F - 23.9 °F 22% 29.74 in 10.0 mi SSE 8.1 mph - N/A   Clear
12:55 PM 68.4 °F - 26.2 °F 21% 29.72 in 10.0 mi SSE 4.6 mph - N/A   Clear
1:15 PM 68.4 °F - 26.1 °F 20% 29.71 in 10.0 mi SSE 8.1 mph - N/A   Clear
1:35 PM 68.4 °F - 27.0 °F 21% 29.70 in 10.0 mi SE 3.5 mph - N/A   Clear
1:55 PM 68.4 °F - 25.0 °F 20% 29.69 in 10.0 mi ESE 5.8 mph - N/A   Clear
2:15 PM 69.6 °F - 23.2 °F 17% 29.68 in 10.0 mi SSE 4.6 mph - N/A   Clear
2:35 PM 73.4 °F - 22.1 °F 15% 29.67 in 10.0 mi South 9.2 mph - N/A   Clear
2:55 PM 73.4 °F - 18.3 °F 12% 29.67 in 10.0 mi SSE 8.1 mph - N/A   Clear
3:15 PM 73.4 °F - 17.4 °F 12% 29.66 in 10.0 mi SSE 9.2 mph - N/A   Clear
3:35 PM 73.4 °F - 18.5 °F 13% 29.67 in 10.0 mi South 8.1 mph - N/A   Clear
3:55 PM 73.4 °F - 20.8 °F 14% 29.67 in 10.0 mi SSE 10.4 mph - N/A   Clear
4:15 PM 73.4 °F - 21.6 °F 14% 29.67 in 10.0 mi SSE 9.2 mph - N/A   Clear
4:35 PM 71.1 °F - 22.3 °F 16% 29.68 in 10.0 mi SSE 10.4 mph - N/A   Clear
4:55 PM 68.4 °F - 23.9 °F 19% 29.68 in 10.0 mi SE 5.8 mph - N/A   Clear
5:15 PM 68.4 °F - 26.8 °F 21% 29.68 in 10.0 mi SSE 4.6 mph - N/A   Clear
5:35 PM 66.6 °F - 27.7 °F 23% 29.69 in 10.0 mi Calm Calm - N/A   Clear
5:55 PM 64.0 °F - 26.8 °F 24% 29.70 in 10.0 mi Calm Calm - N/A   Clear
6:15 PM 61.0 °F - 27.1 °F 28% 29.71 in 10.0 mi Calm Calm - N/A   Clear
6:35 PM 59.5 °F - 27.9 °F 30% 29.71 in 10.0 mi Calm Calm - N/A   Clear
6:55 PM 54.5 °F - 30.2 °F 39% 29.73 in 10.0 mi Calm Calm - N/A   Clear
7:15 PM 60.4 °F - 27.7 °F 29% 29.73 in 10.0 mi Calm Calm - N/A   Clear
7:35 PM 58.8 °F - 28.0 °F 31% 29.74 in 10.0 mi Calm Calm - N/A   Clear
7:55 PM 53.6 °F - 30.7 °F 42% 29.75 in 10.0 mi Calm Calm - N/A   Clear
8:15 PM 49.8 °F - 31.5 °F 49% 29.76 in 10.0 mi Calm Calm - N/A   Clear
8:35 PM 48.4 °F - 32.5 °F 54% 29.78 in 10.0 mi Calm Calm - N/A   Clear
8:55 PM 48.4 °F - 31.1 °F 51% 29.78 in 10.0 mi Calm Calm - N/A   Clear
9:15 PM 48.4 °F - 31.5 °F 52% 29.79 in 10.0 mi WNW 3.5 mph - N/A   Clear
9:35 PM 43.9 °F 41.3 °F 30.4 °F 59% 29.80 in 10.0 mi WNW 4.6 mph - N/A   Clear
9:55 PM 49.6 °F - 26.4 °F 41% 29.80 in 10.0 mi NW 6.9 mph - N/A   Clear
10:15 PM 48.4 °F - 26.2 °F 42% 29.80 in 10.0 mi NW 9.2 mph - N/A   Clear
10:35 PM 48.4 °F - 26.2 °F 42% 29.81 in 10.0 mi NW 6.9 mph - N/A   Clear
10:55 PM 48.4 °F - 26.2 °F 42% 29.82 in 10.0 mi NNW 10.4 mph - N/A   Clear
11:15 PM 50.9 °F - 25.3 °F 37% 29.83 in 10.0 mi NNW 12.7 mph - N/A   Clear
11:35 PM 49.6 °F - 25.0 °F 38% 29.84 in 10.0 mi NNW 13.8 mph - N/A   Clear
11:55 PM 48.4 °F - 25.2 °F 40% 29.84 in 10.0 mi NNW 10.4 mph - N/A   Clear